Estación de Contra Coronel

Ultimos registro cada 15 minutos 90
Estación Fecha / Hora Temperatura Humedad Lluvia Velocidad Dirección Radiación Presion
90 Contra Coronel 04-05-2026 22:15 10,8 98,9 0,2 1 29 0,6 1007,9
89 Contra Coronel 04-05-2026 22:00 10,8 98,8 0,2 0 39 0,6 1008,2
88 Contra Coronel 04-05-2026 21:45 10,8 98,6 0 0 58 0,6 1008,2
87 Contra Coronel 04-05-2026 21:30 10,8 98,5 0 0,7 44 0,6 1008,1
86 Contra Coronel 04-05-2026 21:15 10,9 98,4 0,2 0,3 48 0,6 1008,2
85 Contra Coronel 04-05-2026 21:00 11 98,3 0,2 1 46 0,6 1008,2
84 Contra Coronel 04-05-2026 20:45 11,1 98,1 0 1 35 0,6 1008,3
83 Contra Coronel 04-05-2026 20:30 11,2 98 0,2 0,7 15 0,6 1008,4
82 Contra Coronel 04-05-2026 20:15 11,3 98 0,2 1 37 0,6 1008,2
81 Contra Coronel 04-05-2026 20:00 11,2 97,8 0,4 0,3 55 0,6 1008,1
80 Contra Coronel 04-05-2026 19:45 11,2 97,2 0 0 81 0,6 1008,1
79 Contra Coronel 04-05-2026 19:30 11,3 97,3 0 0,3 62 0,6 1008
78 Contra Coronel 04-05-2026 19:15 10,9 97,8 0 0 81 0,6 1008
77 Contra Coronel 04-05-2026 19:00 10,8 97,6 0 0 122 0,6 1007,9
76 Contra Coronel 04-05-2026 18:45 10,9 97,4 0 0 125 0,6 1007,7
75 Contra Coronel 04-05-2026 18:30 10,8 96,6 0 0,7 138 0,6 1007,6
74 Contra Coronel 04-05-2026 18:15 11,4 95,3 0 0 63 0,6 1007,5
73 Contra Coronel 04-05-2026 18:00 11,6 95,2 0 0,3 27 0,6 1007,5
72 Contra Coronel 04-05-2026 17:45 11,8 94,4 0 0,7 15 1,9 1007,6
71 Contra Coronel 04-05-2026 17:30 11,9 94,6 0 1 3 9,4 1007,7
70 Contra Coronel 04-05-2026 17:15 11,9 94,8 0 0,7 350 25,6 1007,9
69 Contra Coronel 04-05-2026 17:00 11,7 95 0 0 326 25,6 1008
68 Contra Coronel 04-05-2026 16:45 11,9 94,3 0 0,3 323 31,9 1007,8
67 Contra Coronel 04-05-2026 16:30 11,8 93,8 0 1 303 26,9 1007,6
66 Contra Coronel 04-05-2026 16:15 11,9 93,9 0 1,7 317 45,6 1007,4
65 Contra Coronel 04-05-2026 16:00 12,6 92,2 0 1,7 313 35,6 1007,4
64 Contra Coronel 04-05-2026 15:45 12,8 93,2 0 1,7 320 40,6 1007,3
63 Contra Coronel 04-05-2026 15:30 12,7 93,5 0 2,3 337 59,4 1007,3
62 Contra Coronel 04-05-2026 15:15 12,6 95,2 0 1,3 343 69,4 1007
61 Contra Coronel 04-05-2026 15:00 12,5 97,3 0 1,3 357 78,1 1006,8
60 Contra Coronel 04-05-2026 14:45 12,3 97,7 0,2 1,7 330 76,9 1007
59 Contra Coronel 04-05-2026 14:30 12,4 96,6 0,2 2 330 70,6 1006,9
58 Contra Coronel 04-05-2026 14:15 12,5 96,4 0,2 2,7 337 83,1 1006,8
57 Contra Coronel 04-05-2026 14:00 12,5 95,9 0 1 351 70,6 1007
56 Contra Coronel 04-05-2026 13:45 12,6 93,8 0 0,7 3 48,1 1007,1
55 Contra Coronel 04-05-2026 13:30 12,4 94 0 1,7 3 46,9 1007,1
54 Contra Coronel 04-05-2026 13:15 12,3 93,9 0 2 3 34,4 1007,2
53 Contra Coronel 04-05-2026 13:00 12,3 93,8 0 1,7 14 85,6 1007,2
52 Contra Coronel 04-05-2026 12:45 12,4 92,9 0 2 10 121,9 1007,4
51 Contra Coronel 04-05-2026 12:30 12,1 92,2 0 2,3 14 75,6 1007,6
50 Contra Coronel 04-05-2026 12:15 12,2 92,5 0 2,3 11 43,1 1007,8
49 Contra Coronel 04-05-2026 12:00 12,2 92,3 0 1,7 6 80,6 1007,8
48 Contra Coronel 04-05-2026 11:45 12,1 92 0 2,7 18 69,4 1007,9
47 Contra Coronel 04-05-2026 11:30 11,8 93,7 0 1,7 14 64,4 1007,9
46 Contra Coronel 04-05-2026 11:15 11,4 94,3 0 1,7 15 113,1 1007,8
45 Contra Coronel 04-05-2026 11:00 11,1 94,6 0 1,3 22 48,1 1007,9
44 Contra Coronel 04-05-2026 10:45 11 94,6 0 1,3 11 45,6 1008,1
43 Contra Coronel 04-05-2026 10:30 10,9 94,5 0 1,7 22 23,1 1008,2
42 Contra Coronel 04-05-2026 10:15 10,8 94,9 0 1,7 18 33,1 1008,3
41 Contra Coronel 04-05-2026 10:00 10,6 95,7 0 1,7 25 31,9 1008,4
40 Contra Coronel 04-05-2026 09:45 10,5 96 0 1,3 35 36,9 1008,1
39 Contra Coronel 04-05-2026 09:30 10,4 96,2 0 1 38 28,1 1008,1
38 Contra Coronel 04-05-2026 09:15 10,4 96,2 0 1 27 28,1 1008,3
37 Contra Coronel 04-05-2026 09:00 10,3 96,3 0 2 37 18,1 1008,3
36 Contra Coronel 04-05-2026 08:45 10,2 97,1 0 1,3 37 19,4 1008,5
35 Contra Coronel 04-05-2026 08:30 10,2 97 0 1,3 24 10,6 1008,4
34 Contra Coronel 04-05-2026 08:15 10,1 97 0 1,3 17 6,9 1008,3
33 Contra Coronel 04-05-2026 08:00 10,1 97 0 1,7 17 0,6 1008
32 Contra Coronel 04-05-2026 07:45 10 97,3 0 1,7 21 0,6 1008
31 Contra Coronel 04-05-2026 07:30 10 97,5 0 1 18 0,6 1008
30 Contra Coronel 04-05-2026 07:15 10 97,1 0 0,3 24 0,6 1008,2
29 Contra Coronel 04-05-2026 07:00 10,1 96,6 0 1 7 0,6 1008,3
28 Contra Coronel 04-05-2026 06:45 10,1 96,4 0 1,3 14 0,6 1008,1
27 Contra Coronel 04-05-2026 06:30 10,1 96,8 0 1,7 15 0,6 1007,8
26 Contra Coronel 04-05-2026 06:15 9,9 97,6 0 1,3 18 0,6 1007,9
25 Contra Coronel 04-05-2026 06:00 9,9 97,8 0 0,7 24 0,6 1008,1
24 Contra Coronel 04-05-2026 05:45 9,9 98,3 0 1 7 0,6 1008
23 Contra Coronel 04-05-2026 05:30 9,8 98,3 0 1,7 35 0,6 1007,9
22 Contra Coronel 04-05-2026 05:15 9,8 98,1 0 1 29 0,6 1008,2
21 Contra Coronel 04-05-2026 05:00 9,8 97,7 0 1 32 0,6 1008,5
20 Contra Coronel 04-05-2026 04:45 10 96,9 0,2 1,3 28 0,6 1008,5
19 Contra Coronel 04-05-2026 04:30 9,9 96,7 0 1 14 0,6 1008,6
18 Contra Coronel 04-05-2026 04:15 9,8 96,9 0 1,3 25 0,6 1008,3
17 Contra Coronel 04-05-2026 04:00 9,7 97,5 0 1 35 0,6 1008,7
16 Contra Coronel 04-05-2026 03:45 9,6 97,5 0 0,3 13 0,6 1008,9
15 Contra Coronel 04-05-2026 03:30 9,8 97,1 0 0,7 29 0,6 1009
14 Contra Coronel 04-05-2026 03:15 10 97,2 0 1 11 0,6 1009,1
13 Contra Coronel 04-05-2026 03:00 9,9 97,9 0 0,7 4 0,6 1009,2
12 Contra Coronel 04-05-2026 02:45 9,9 98 0 0,7 27 0,6 1009,2
11 Contra Coronel 04-05-2026 02:30 9,8 98,2 0 0,3 31 0,6 1009,5
10 Contra Coronel 04-05-2026 02:15 9,8 98,6 0 0,3 73 0,6 1009,6
9 Contra Coronel 04-05-2026 02:00 9,8 98,7 0 0,3 81 0,6 1009,9
8 Contra Coronel 04-05-2026 01:45 9,7 98,7 0 0 79 0,6 1009,8
7 Contra Coronel 04-05-2026 01:30 9,9 98,8 0 0 48 0,6 1010,1
6 Contra Coronel 04-05-2026 01:15 9,8 98,7 0 0 48 0,6 1010,1
5 Contra Coronel 04-05-2026 01:00 9,9 98,7 0,2 0 336 0,6 1010,1
4 Contra Coronel 04-05-2026 00:45 9,9 98,5 0 0 326 0,6 1010,2
3 Contra Coronel 04-05-2026 00:30 9,6 98,2 0 0 313 0,6 1010,3
2 Contra Coronel 04-05-2026 00:15 9,7 98,1 0 0 313 0,6 1010,3
1 Contra Coronel 04-05-2026 00:00 9,9 97,8 0 0,3 330 0,6 1010,3